Regional Weather Roundup
Issued by NWS

Home | Current Version | Previous Version | Graphics & Text | Print | Product List | Glossary On
Versions: 1 2 3 4 5 6 7 8 9 10 11 12 13 14 15 16 17 18 19 20 21 22 23 24 25 26 27 28 29 30 31 32 33 34 35 36 37 38 39 40 41 42 43 44 45 46 47 48 49 50
000
ASUS43 KMPX 190610
RWRMN
WEATHER ROUNDUP FOR MINNESOTA
NATIONAL WEATHER SERVICE TWIN CITIES/CHANHASSEN MN
100 AM CDT SAT AUG 19 2017


NOTE: "FAIR" INDICATES FEW OR NO CLOUDS BELOW 12,000 FEET WITH NO
SIGNIFICANT WEATHER AND/OR OBSTRUCTIONS TO VISIBILITY. N/A MEANS
CURRENT SKY AND/OR WEATHER CONDITIONS ARE NOT AVAILABLE.

MNZ060>063-068>070-190700-
   Twin Cities Metro

CITY           SKY/WX    TMP DP  RH WIND       PRES   REMARKS
TWIN CITIES    PTCLDY    63  59  87 CALM      29.93R
6HR MIN TEMP:  63; 6HR MAX TEMP:  72;

ST PAUL        CLEAR     60  60 100 CALM      29.93R FOG
CRYSTAL        CLEAR     59  56  89 CALM      29.92R FOG
BLAINE         CLEAR     61  61 100 CALM      29.93R
LAKEVILLE      CLEAR     55  55 100 CALM      29.94R FOG
EDEN PRAIRIE   CLEAR     62  61  96 CALM      29.92R
6HR MIN TEMP:  61; 6HR MAX TEMP:  71;

SOUTH ST PAUL  CLEAR     60  59  97 CALM      29.93R
LAKE ELMO      MOCLDY    55  55 100 CALM      29.94R FOG
$$
MNZ001>005-007-008-013>017-022>024-027-028-190700-
   Northwest Minnesota

CITY           SKY/WX    TMP DP  RH WIND       PRES   REMARKS
BEMIDJI        CLEAR     59  55  87 SW5       29.89S
HALLOCK        CLEAR     55  52  88 SE5       29.83S
ROSEAU         CLEAR     57  52  82 S3        29.84S
WARROAD        CLEAR     57  54  88 SW3       29.84S
THIEF RVR FALL CLEAR     59  56  89 S5        29.87S
CROOKSTON      CLEAR     55  55 100 S6        29.87R
FOSSTON        CLEAR     54  54 100 S6        29.89F
DETROIT LAKES  CLEAR     63  59  88 W5        29.92S
MOORHEAD       CLEAR     61  59  94 S5        29.90S
PARK RAPIDS    CLEAR     57  54  89 CALM      29.90S FOG
MAHNOMEN       FAIR      56  55  95 S6        29.89S
$$
MNZ006-009>011-018-025>026-190700-
   North Central Minnesota

CITY           SKY/WX    TMP DP  RH WIND       PRES   REMARKS
BAUDETTE       CLEAR     55  54  96 S5        29.84R
FLAG ISLAND    CLEAR     70  54  56 CALM      29.81S
INTL FALLS     CLEAR     58  56  93 CALM      29.83S
6HR MIN TEMP:  57; 6HR MAX TEMP:  72;

WASKISH        CLEAR     64  63  94 W9        29.87R
BIG FORK       CLEAR     55  55 100 SW3       29.87S
LONGVILLE        N/A     54  54 100 CALM      29.89S FOG
GRAND RAPIDS   CLEAR     60  57  89 CALM      29.90S
CRANE LAKE     CLEAR     52  50  93 CALM      29.85S FOG
ORR            CLEAR     57  55  94 W3        29.83S
COOK           CLEAR     57  57 100 CALM      29.87R
WALKER         FAIR      58  55  90 W5        29.89S
$$
MNZ012-019>021-037-190700-
   Northeast Minnesota

CITY           SKY/WX    TMP DP  RH WIND       PRES   REMARKS
DULUTH         CLEAR     57  57 100 W8        29.88R
6HR MIN TEMP:  57; 6HR MAX TEMP:  69;

ELY            CLEAR     57  55  94 CALM      29.86R
HIBBING        FOG       52  52 100 CALM      29.87S VSB 1/4
EVELETH        CLEAR     58  55  89 W5        29.88S
DULUTH HARBOR  CLEAR     61  59  94 SW8       29.87R
TWO HARBORS    CLEAR     63  57  82 NW5       29.84S
SILVER BAY     CLEAR     63  59  88 W3        29.83R
GRAND MARAIS     N/A     65  60  84 SW9       29.79F
G MARAIS ARPRT MOCLDY    57  54  88 CALM      29.85F
$$
MNZ029>031-032-039>041-046>048-054>057-064-190700-
   West Central Minnesota

CITY           SKY/WX    TMP DP  RH WIND       PRES   REMARKS
FERGUS FALLS   CLEAR     59  59 100 S5        29.92S
WHEATON        CLEAR     61  55  82 SW3       29.94S
MORRIS         CLEAR     61  59  94 CALM      29.93S
ALEXANDRIA     CLEAR     58  57  97 SW8       29.95S
ELBOW LAKE     FAIR      56  56 100 S6        29.93F
WADENA         CLEAR     57  57 100 CALM      29.92R
GLENWOOD       CLEAR     57  55  94 SW3       29.95R FOG
APPLETON       MOCLDY    59  57  94 CALM      29.93S FOG
BENSON         FOG       57  55  94 CALM      29.95S VSB<1/4
ORTONVILLE     CLEAR     61  57  88 MISG      29.93F
MADISON        FOG       61  61 100 CALM      29.94S VSB 1/2
WILLMAR        FAIR      59  57  94 CALM      29.96R FOG
$$
MNZ033>034-036-042>043-049>051-058-059-190700-
   Central Minnesota

CITY           SKY/WX    TMP DP  RH WIND       PRES   REMARKS
ST CLOUD       CLEAR     56  56 100 CALM      29.92S FOG
6HR MIN TEMP:  56; 6HR MAX TEMP:  69;

SAUK CENTRE    FOG       56  56  99 S3        29.94S VSB 1/2
PAYNESVILLE    FOG       56  56 100 CALM      29.94S VSB 1/4
AITKIN         CLEAR     55  54  94 CALM      29.89S
PINE RIVER     FOG       52  52 100 CALM      29.94S VSB 1/4
BRAINERD       CLEAR     57  57 100 S6        29.92S
STAPLES        CLEAR     57  57 100 CALM      29.92S
LONG PRAIRIE   FAIR      54  54 100 S5        29.94S FOG
LITTLE FALLS     N/A     55  54  94 CALM      29.93S FOG
LITCHFIELD     CLEAR     63  61  94 CALM      29.94S
BUFFALO        CLEAR     58  56  92 CALM      29.95R
MAPLE LAKE     FOG       59  59  99 CALM      29.94S VSB 1/2
HUTCHINSON     CLEAR     61  60  98 NW3       29.95R
$$
MNZ037-044-045-052-053-190700-
   East Central Minnesota

CITY           SKY/WX    TMP DP  RH WIND       PRES   REMARKS
PRINCETON      FOG       55  55 100 CALM      29.93R VSB 3/4
MORA           CLEAR     55  54  94 CALM      29.93S
CAMBRIDGE      CLEAR     61  57  88 CALM      29.92S
RUSH CITY      MOCLDY    58  57  96 CALM      29.91F FOG
MOOSE LAKE     FOG       52  50  93 CALM      29.89R VSB 3/4
HINCKLEY       FOG       54  54 100 CALM      29.91S VSB 1/2
CLOQUET        CLEAR     61  55  82 W7        29.89S
MCGREGOR       CLEAR     55  55 100 CALM      29.91S
$$
MNZ071>073-080-081-089-090-097-098-190700-
   Southwest Minnesota

CITY           SKY/WX    TMP DP  RH WIND       PRES   REMARKS
MONTEVIDEO     CLEAR     57  55  94 CALM      29.93F FOG
GRANITE FALLS  FOG       57  57 100 CALM      29.95F VSB 3/4
CANBY          CLEAR     59  58  96 CALM      29.95F
MARSHALL       LGT RAIN  58  58 100 W5        29.95F VSB 1/4
REDWOOD FALLS  CLEAR     59  57  93 NW3       29.94R
OLIVIA         CLEAR     55  55 100 CALM      29.94R FOG
PIPESTONE      CLOUDY    64  61  88 NE6       29.96S
WINDOM         FOG       55  54  94 CALM      29.96R VSB 1/2
WORTHINGTON    MOCLDY    56  55  97 NW3       29.96S
JACKSON        FOG       55  55 100 CALM      29.91R VSB 1
TRACY          FOG       61  61 100 CALM      29.95F VSB 1/4
SLAYTON        CLOUDY    60  56  85 NW5       29.96F
$$
MNZ065>067-074>077-082>085-091>093-190700-
   South Central Minnesota

CITY           SKY/WX    TMP DP  RH WIND       PRES   REMARKS
MANKATO        CLEAR     59  58  96 CALM      29.94S
NEW ULM        MOCLDY    57  57 100 W3        29.94R
ST JAMES       FOG       57  57 100 CALM      29.95S VSB 3/4
FAIRMONT       CLEAR     58  57  97 W3        29.94S
GLENCOE        CLEAR     60  60 100 CALM      29.93R
FARIBAULT      FOG       57  55  94 CALM      29.94S VSB 3/4
OWATONNA       CLEAR     57  55  94 CALM      29.94S FOG
WASECA         FOG       55  55 100 CALM      29.95R VSB 1/4
ALBERT LEA     PTCLDY    61  61 100 CALM      29.94R FOG
$$
MNZ078>079-086>088-094>096-190700-
   Southeast Minnesota

CITY           SKY/WX    TMP DP  RH WIND       PRES   REMARKS
ROCHESTER      PTCLDY    55  55 100 E5        29.95F
6HR MIN TEMP:  55; 6HR MAX TEMP:  69;

RED WING         N/A     57  55  94 CALM      29.92S FOG
STANTON        CLEAR     56  55  95 CALM      29.92S FOG
DODGE CENTER   CLEAR     55  54  94 CALM      29.94F
WINONA         MOCLDY    59  59 100 CALM      29.94S
AUSTIN         MOCLDY    57  55  94 CALM      29.94S
PRESTON        CLOUDY    59  55  86 CALM      29.95F
$$
ABBREVIATIONS USED IN REMARKS
   TC - TEMPERATURES IN CELSIUS
  WCI - WIND CHILL INDEX
   HX - HEAT INDEX
  VSB - VISIBILITY
$$




USA.gov is the U.S. government's official web portal to all federal, state and local government web resources and services.